Location: Mascot Post Office (historical)
(40.2645°N, 99.5462°W)
Time: 17:24:34
(UTC+00:00)

Cosmos 2061 Rocket - Pass Details

Date: 14 July 2020
Orbit: 965 x 1014 km, 82.9° (Epoch: 04 August)

Event Time Altitude Azimuth Distance (km) Brightness Sun altitude
Exits shadow 08:41:49 44° 215° (SW) 1,357 4.3 -22.4°
Maximum altitude 08:43:50 66° 279° (W) 1,082 4.1 -22.2°
Drops below altitude 10° 08:50:07 10° 2° (N) 2,751 7.2 -21.6°
Sets 08:52:40 0° 5° (N) 3,696 8.1 -21.3°
